Regional Weather Roundup
Issued by NWS San Diego, CA

Home | Current Version | Previous Version | Text Only | Print | Product List | Glossary On
Versions: 1 2 3 4 5 6 7 8 9 10 11 12 13 14 15 16 17 18 19 20 21 22 23 24 25 26 27 28 29 30 31 32 33 34 35 36 37 38 39 40 41 42 43 44 45 46 47 48 49 50
000
ASUS46 KSGX 251410
RWRSGX

SAN DIEGO HOURLY WEATHER ROUNDUP
NATIONAL WEATHER SERVICE SAN DIEGO CA
700 AM PDT FRI JUL 25 2014

NOTE: "FAIR" INDICATES FEW OR NO CLOUDS BELOW 12,000 FEET WITH NO
SIGNIFICANT WEATHER AND/OR OBSTRUCTIONS TO VISIBILITY.

CAZ042-043-060-061-PZZ750-775-251500-

GREATER SAN DIEGO AREA

CITY           SKY/WX    TMP DP  RH WIND       PRES   REMARKS
LINDBERGH FLD  PTSUNNY   69  63  81 SW5       29.89R
POINT LOMA       N/A     65  62  91 S6          N/A
NATIONAL CITY    N/A     69  66  89 CALM      29.88S
CHULA VISTA      N/A     69  66  91 CALM      29.82R
IMPERIAL BEACH CLOUDY    68  64  87 SW5       29.88R
BROWN FIELD    CLOUDY    68  64  87 NW3       29.88R
MIRAMAR MCAS   CLOUDY    68  62  81 CALM      29.88S
MONTGOMERY FLD PTSUNNY   69  63  81 CALM      29.88S

$$

NORTH SAN DIEGO COUNTY

CITY           SKY/WX    TMP DP  RH WIND       PRES   REMARKS
CAMP PENDLETON CLOUDY    70  63  78 SW3       29.87S
OCEANSIDE AP   CLOUDY    70  64  81 SW5       29.87S
VISTA            N/A     69  65  86 CALM      29.85S
CARLSBAD       PTSUNNY   70  63  78 CALM      29.87S
DEL MAR          N/A     68  65  89 CALM      29.90R
LA JOLLA SCRIP   N/A     67  65  91 CALM      29.85S
FALLBROOK        N/A     69  69  99 CALM      29.87S
ESCONDIDO        N/A     69  65  87 CALM      29.88S
SAN MARCOS       N/A     68  64  85 CALM      29.84
POWAY            N/A     68  64  86 CALM      29.87S
R. PENASQUITOS   N/A     68  64  87 CALM      29.87S

$$

EAST SAN DIEGO COUNTY

CITY           SKY/WX    TMP DP  RH WIND       PRES   REMARKS
RAMONA         PTSUNNY   66  63  90 CALM      29.91R
SANTEE LAKES     N/A     68  64  87 CALM      29.88R
GILLESPIE FLD  FAIR      70  64  83 CALM      29.90R
LA MESA          N/A     68  65  91 CALM      29.81S
JAMUL            N/A     67  65  93 CALM      29.84S
DESCANSO N       N/A     76  34  22 CALM      29.69R
MT. LAGUNA OBS   N/A     76  34  22 CALM      29.76R
CAMPO            N/A     73  52  47 NE3       29.94R

$$

ORANGE COUNTY AND THE LOS ANGELES BASIN

CITY           SKY/WX    TMP DP  RH WIND       PRES   REMARKS
JOHN WAYNE AP  PTSUNNY   74  64  71 SE7       29.87S
LAGUNA BEACH     N/A     71  66  84 SE3       29.84S
LAKE FOREST FR   N/A     66  61  83 CALM      29.77S
SANTA ANA        N/A     71  67  85 CALM      29.83R
HUNTINGTON BCH   N/A     70  67  91 E7        29.89R
LOS ALAMITOS   CLOUDY    71  65  83 SE5       29.88S
FULLERTON      CLOUDY    72  64  76 S6        29.87R
LONG BEACH     CLOUDY    71  65  81 SE10      29.87S
L.A. AP        PTSUNNY   71  64  78 E9        29.88R
L.A. DOWNTOWN  CLOUDY    71  64  78 VRB3      29.87R

$$

THE INLAND EMPIRE

CITY           SKY/WX    TMP DP  RH WIND       PRES   REMARKS
CORONA         SUNNY     68  64  86 W5        29.90R
CHINO          MOSUNNY   66  64  93 W3        29.91R
ONTARIO        MOSUNNY   70  62  76 SW5       29.90R
SAN BERNARDINO MOSUNNY   72  55  56 SW5       29.91
RIVERSIDE AP   MOSUNNY   69  62  78 W3        29.90R
RIV CYN CREST    N/A     70  67  92 CALM      29.87R
MORENO VALLEY    N/A     71  63  75 CALM      28.02R
MARCH ARB      MOSUNNY   71  60  68 SE2       29.92R
HORSETHIEF CYN   N/A     70  59  68 E3        29.86S
PERRIS           N/A     68  62  81 S3          N/A
MENIFEE          N/A     69  64  86 S2        29.96R
HEMET EAST       N/A     70  50  48 CALM      29.82R
FRENCH VALLEY  FAIR      66  63  88 CALM      29.92R
TEMECULA         N/A     68  65  90 CALM      29.87S

$$

SAN BERNARDINO AND RIVERSIDE COUNTY MOUNTAINS

CITY           SKY/WX    TMP DP  RH WIND       PRES   REMARKS
BIG BEAR AP    PTSUNNY   66  39  37 CALM      30.27R
BIG BEAR SHEA    N/A     68  36  30 CALM      29.77R
ANGELUS OAKS     N/A     72  40  31 MISG      29.66R
PINE COVE        N/A     74  37  26 CALM      29.76R

$$

SOUTHERN DESERT INCLUDING THE COACHELLA VALLEY

CITY           SKY/WX    TMP DP  RH WIND       PRES   REMARKS
PALM SPRINGS   PTSUNNY   92  46  20 N6        29.83R
THOUSAND PALMS   N/A     90  58  34 E5        29.77R
PALM DESERT      N/A     91  51  25 CALM      28.27S
THERMAL        CLOUDY    90  71  53 SE5       29.76R HX  96
BLYTHE         MOSUNNY   93  67  42 SW14      29.80R HX  96
IMPERIAL AP    MOSUNNY   88  74  63 SE13      29.75R HX  96
EL CENTRO NAS  MOSUNNY   88  74  63 E9        29.75R HX  96
YUMA AZ        MOSUNNY   91  70  49 SE17      29.79R HX  96
MEXICALI       MOSUNNY   86  70  58 SE7       29.77

$$

UPPER DESERT

CITY           SKY/WX    TMP DP  RH WIND       PRES   REMARKS
VICTORVILLE AP SUNNY     73  34  23 CALM      29.96R
HESPERIA         N/A     78  37  23 W1        29.86R
APPLE VALLEY     N/A     80  36  20 CALM      30.03R
GRAY BUTTE AP  NOT AVBL
PALMDALE       SUNNY     72  39  30 S3        29.93R
LANCASTER      SUNNY     78  42  27 W14       29.91R
EDWARDS AFB    MOSUNNY   71  37  28 S8        29.89R
DAGGETT        MOSUNNY   83  33  16 W7        29.89R
29 PALMS N     PTSUNNY   89  46  22 SW9       29.95R
NEEDLES        CLOUDY    95  57  27 S6        29.81R

$$

REGIONAL REPORTS

CITY           SKY/WX    TMP DP  RH WIND       PRES   REMARKS
SANTA BARBARA  CLEAR     65  60  84 SE3       29.86S
SANDBERG       SUNNY     72  40  31 S15       30.07R
MT. WILSON       N/A     73   7   7 MISG        N/A
LAS VEGAS NV   MOSUNNY   91  46  21 S10       29.83R
PHOENIX AZ     MOSUNNY   92  65  40 SE7       29.88R
TIJUANA        PTSUNNY   68  63  83 NW3       29.90S
ENSENADA NW      N/A     66  32  27 W2        29.85R

$$

OFFSHORE ISLANDS

CITY           SKY/WX    TMP DP  RH WIND       PRES   REMARKS
CATALINA ARPT  SUNNY     68  57  68 S5        29.91R
SAN NICOLAS IS MOCLDY    65  54  67 W18       29.86F HAZE

$$

MARINE AND OFFSHORE BUOY REPORTS

STATION/POSITION SKY/WX   TEMP    WIND        PRES    SWELL
                          AIR SEA DIR/SP/G            HT/PER/DIR
                          (F)     (DEG/KT/KT) (MB)    (FT/S/D)
TANNER BANKS               63 66  310/ 17/ 19 1011.6F   5/310/ 8
S CLEMENTE BASIN           68 71  260/  6/  8 1011.4R   7/290/ 9
SAN NICOLAS IS.               66                N/A     2/310/11
SO. S. ROSA ISLA           63 65  320/ 14/ 17 1011.3R   5/ 9
W. S. BARBARA CH           59 57  320/ 12/ 16 1011.0R   7/310/10
M. S. BARBARA CH           63 64  220/  8/ 10 1010.7R
S. MONICA BASIN            67 67   90/  8/ 10 1010.9R   3/270/ 6
S PEDRO CHANNEL               68                N/A     2/160/15
DANA POINT                    69                N/A     2/180/15
CMP PENDLETON NS              69                N/A     2/210/15
OCEANSIDE OFFSHR              71                N/A     2/180/15
TORREY PINES OTR              72                N/A     2/200/18
LA JOLLA 1                 69 67  160/  2/  4 1011.7S
MISSION BAY BUOY              69                N/A     2/200/18
SAN DIEGO BAY                 72              1012.2R
POINT LOMA SOUTH              70                N/A     2/210/18

$$




USA.gov is the U.S. government's official web portal to all federal, state and local government web resources and services.